Time,TemperatureF,DewpointF,PressureIn,WindDirection,WindDirectionDegrees,WindSpeedMPH,WindSpeedGustMPH,Humidity,HourlyPrecipIn,Conditions,Clouds,dailyrainin,SoftwareType,DateUTC
2013-11-03 00:03:00,74.3,62.6,29.35,NNE,22,0.0,0.0,67,0.00,,,0.00,WUHU21623XXSP,2013-11-03 04:03:00,
2013-11-03 00:08:00,74.1,62.0,29.35,North,0,0.0,0.0,66,0.00,,,0.00,WUHU21623XXSP,2013-11-03 04:08:00,
2013-11-03 00:13:00,74.1,62.5,29.35,NNW,337,0.0,0.0,67,0.00,,,0.00,WUHU21623XXSP,2013-11-03 04:13:00,
2013-11-03 00:18:00,73.8,61.7,29.35,NW,315,0.0,0.0,66,0.00,,,0.00,WUHU21623XXSP,2013-11-03 04:18:00,
2013-11-03 00:23:00,73.6,61.1,29.35,NNW,337,0.0,0.0,65,0.00,,,0.00,WUHU21623XXSP,2013-11-03 04:23:00,
2013-11-03 00:28:00,73.4,60.9,29.36,NNW,337,0.0,0.0,65,0.00,,,0.00,WUHU21623XXSP,2013-11-03 04:28:00,
2013-11-03 00:33:00,73.2,60.7,29.36,NNW,337,0.0,0.0,65,0.00,,,0.00,WUHU21623XXSP,2013-11-03 04:33:00,
2013-11-03 00:38:00,73.0,60.5,29.36,NNW,337,0.0,0.0,65,0.00,,,0.00,WUHU21623XXSP,2013-11-03 04:38:00,
2013-11-03 00:43:00,72.7,60.6,29.36,NNW,337,0.0,0.0,66,0.00,,,0.00,WUHU21623XXSP,2013-11-03 04:43:00,
2013-11-03 00:48:00,72.5,60.5,29.36,North,0,0.0,0.0,66,0.00,,,0.00,WUHU21623XXSP,2013-11-03 04:48:00,
2013-11-03 00:53:00,72.3,60.7,29.37,NNW,337,0.0,0.0,67,0.00,,,0.00,WUHU21623XXSP,2013-11-03 04:53:00,
2013-11-03 00:58:00,72.1,60.6,29.36,NE,45,0.0,0.0,67,0.00,,,0.00,WUHU21623XXSP,2013-11-03 04:58:00,
2013-11-03 01:03:00,72.0,60.4,29.36,North,0,0.0,0.0,67,0.00,,,0.00,WUHU21623XXSP,2013-11-03 05:03:00,
2013-11-03 01:12:00,71.6,60.5,29.36,NW,315,0.0,0.0,68,0.00,,,0.00,WUHU21623XXSP,2013-11-03 05:12:00,
2013-11-03 01:17:00,71.4,60.3,29.36,North,0,0.0,0.0,68,0.00,,,0.00,WUHU21623XXSP,2013-11-03 05:17:00,
2013-11-03 01:22:00,71.6,60.5,29.35,NNW,337,0.0,0.0,68,0.00,,,0.00,WUHU21623XXSP,2013-11-03 05:22:00,
2013-11-03 01:27:00,71.6,60.9,29.36,NNE,22,0.0,0.0,69,0.00,,,0.00,WUHU21623XXSP,2013-11-03 05:27:00,
2013-11-03 01:32:00,71.4,60.7,29.35,NNE,22,0.0,0.0,69,0.00,,,0.00,WUHU21623XXSP,2013-11-03 05:32:00,
2013-11-03 01:37:00,71.4,60.7,29.35,NNE,22,0.0,0.0,69,0.00,,,0.00,WUHU21623XXSP,2013-11-03 05:37:00,
2013-11-03 01:42:00,71.4,60.7,29.35,North,0,0.0,0.0,69,0.00,,,0.00,WUHU21623XXSP,2013-11-03 05:42:00,
2013-11-03 01:47:00,71.4,60.7,29.35,North,0,0.0,0.0,70,0.00,,,0.00,WUHU21623XXSP,2013-11-03 05:47:00,
2013-11-03 01:52:00,71.4,61.2,29.34,North,0,0.0,0.0,70,0.00,,,0.00,WUHU21623XXSP,2013-11-03 05:52:00,
2013-11-03 01:57:00,71.6,61.3,29.34,North,0,0.0,0.0,70,0.00,,,0.00,WUHU21623XXSP,2013-11-03 05:57:00,
2013-11-03 01:02:00,71.4,61.2,29.34,NNW,337,0.0,0.0,70,0.00,,,0.00,WUHU21623XXSP,2013-11-03 06:02:00,
2013-11-03 01:07:00,71.4,61.2,29.34,NNW,337,0.0,0.0,70,0.00,,,0.00,WUHU21623XXSP,2013-11-03 06:07:00,
2013-11-03 01:12:00,71.4,61.5,29.35,NNW,337,0.0,0.0,71,0.00,,,0.00,WUHU21623XXSP,2013-11-03 06:12:00,
2013-11-03 01:17:00,71.4,61.5,29.34,NNW,337,0.0,0.0,71,0.00,,,0.00,WUHU21623XXSP,2013-11-03 06:17:00,
2013-11-03 01:22:00,71.2,61.4,29.34,NW,315,0.0,0.0,71,0.00,,,0.00,WUHU21623XXSP,2013-11-03 06:22:00,
2013-11-03 01:27:00,71.2,61.4,29.35,NNW,337,0.0,0.0,71,0.00,,,0.00,WUHU21623XXSP,2013-11-03 06:27:00,
2013-11-03 01:32:00,71.2,61.7,29.34,NNW,337,0.0,0.0,72,0.00,,,0.00,WUHU21623XXSP,2013-11-03 06:32:00,
2013-11-03 01:37:00,70.9,61.4,29.34,NW,315,0.0,0.0,72,0.00,,,0.00,WUHU21623XXSP,2013-11-03 06:37:00,
2013-11-03 01:42:00,70.9,61.4,29.34,NNW,337,0.0,0.0,72,0.00,,,0.00,WUHU21623XXSP,2013-11-03 06:42:00,
2013-11-03 01:47:00,70.9,61.4,29.34,NW,315,0.0,0.0,72,0.00,,,0.00,WUHU21623XXSP,2013-11-03 06:47:00,
2013-11-03 01:52:00,70.9,61.4,29.34,NNE,22,0.0,0.0,72,0.00,,,0.00,WUHU21623XXSP,2013-11-03 06:52:00,
2013-11-03 01:57:00,70.7,61.6,29.34,North,0,0.0,0.0,73,0.00,,,0.00,WUHU21623XXSP,2013-11-03 06:57:00,
2013-11-03 02:02:00,70.5,61.4,29.34,North,0,0.0,0.0,73,0.00,,,0.00,WUHU21623XXSP,2013-11-03 07:02:00,
2013-11-03 02:07:00,70.5,61.4,29.34,North,0,0.0,0.0,73,0.00,,,0.00,WUHU21623XXSP,2013-11-03 07:07:00,
2013-11-03 02:12:00,70.5,61.4,29.34,NNW,337,0.0,0.0,73,0.00,,,0.00,WUHU21623XXSP,2013-11-03 07:12:00,
2013-11-03 02:17:00,70.5,61.8,29.34,NNW,337,0.0,0.0,74,0.00,,,0.00,WUHU21623XXSP,2013-11-03 07:17:00,
2013-11-03 02:22:00,70.5,61.8,29.33,NNW,337,0.0,0.0,74,0.00,,,0.00,WUHU21623XXSP,2013-11-03 07:22:00,
2013-11-03 02:27:00,70.5,62.0,29.34,NNW,337,0.0,0.0,74,0.00,,,0.00,WUHU21623XXSP,2013-11-03 07:27:00,
2013-11-03 02:32:00,70.5,61.8,29.33,NNW,337,0.0,0.0,74,0.00,,,0.00,WUHU21623XXSP,2013-11-03 07:32:00,
2013-11-03 02:37:00,70.5,61.8,29.33,NNW,337,0.0,0.0,74,0.00,,,0.00,WUHU21623XXSP,2013-11-03 07:37:00,
2013-11-03 02:42:00,70.3,62.0,29.33,NNW,337,0.0,0.0,75,0.00,,,0.00,WUHU21623XXSP,2013-11-03 07:42:00,
2013-11-03 02:47:00,70.3,62.0,29.33,NNW,337,0.0,0.0,75,0.00,,,0.00,WUHU21623XXSP,2013-11-03 07:47:00,
2013-11-03 02:52:00,70.3,62.0,29.33,NNW,337,0.0,0.0,75,0.00,,,0.00,WUHU21623XXSP,2013-11-03 07:52:00,
2013-11-03 02:57:00,70.3,62.0,29.33,NNW,337,0.0,0.0,75,0.00,,,0.00,WUHU21623XXSP,2013-11-03 07:57:00,
2013-11-03 03:02:00,70.3,62.0,29.33,North,0,0.0,0.0,75,0.00,,,0.00,WUHU21623XXSP,2013-11-03 08:02:00,
2013-11-03 03:07:00,70.3,62.0,29.34,NNE,22,0.0,0.0,75,0.00,,,0.00,WUHU21623XXSP,2013-11-03 08:07:00,
2013-11-03 03:12:00,70.3,62.0,29.34,NNW,337,0.0,0.0,75,0.00,,,0.00,WUHU21623XXSP,2013-11-03 08:12:00,
2013-11-03 03:17:00,70.3,62.0,29.34,NNW,337,0.0,0.0,75,0.00,,,0.00,WUHU21623XXSP,2013-11-03 08:17:00,
2013-11-03 03:22:00,70.3,62.0,29.34,NNW,337,0.0,0.0,75,0.00,,,0.00,WUHU21623XXSP,2013-11-03 08:22:00,
2013-11-03 03:27:00,70.2,61.8,29.34,NNW,337,0.0,0.0,75,0.00,,,0.00,WUHU21623XXSP,2013-11-03 08:27:00,
2013-11-03 03:32:00,70.2,61.8,29.34,North,0,0.0,0.0,75,0.00,,,0.00,WUHU21623XXSP,2013-11-03 08:32:00,
2013-11-03 03:37:00,70.2,61.8,29.34,NNW,337,0.0,0.0,75,0.00,,,0.00,WUHU21623XXSP,2013-11-03 08:37:00,
2013-11-03 03:42:00,70.2,61.8,29.34,NNW,337,0.0,0.0,75,0.00,,,0.00,WUHU21623XXSP,2013-11-03 08:42:00,
2013-11-03 03:47:00,70.0,61.6,29.34,NW,315,0.0,0.0,75,0.00,,,0.00,WUHU21623XXSP,2013-11-03 08:47:00,
2013-11-03 03:52:00,70.0,61.6,29.34,NW,315,0.0,0.0,75,0.00,,,0.00,WUHU21623XXSP,2013-11-03 08:52:00,
2013-11-03 03:57:00,70.0,61.6,29.34,NNW,337,0.0,0.0,75,0.00,,,0.00,WUHU21623XXSP,2013-11-03 08:57:00,
2013-11-03 04:02:00,70.0,61.6,29.35,NNW,337,0.0,0.0,75,0.00,,,0.00,WUHU21623XXSP,2013-11-03 09:02:00,
2013-11-03 04:07:00,69.8,61.4,29.35,NNW,337,0.0,0.0,75,0.00,,,0.00,WUHU21623XXSP,2013-11-03 09:07:00,
2013-11-03 04:12:00,69.6,61.3,29.34,NNW,337,0.0,0.0,75,0.00,,,0.00,WUHU21623XXSP,2013-11-03 09:12:00,
2013-11-03 04:17:00,69.6,61.3,29.34,NNW,337,0.0,0.0,75,0.00,,,0.00,WUHU21623XXSP,2013-11-03 09:17:00,
2013-11-03 04:22:00,69.4,61.1,29.34,NNW,337,0.0,0.0,75,0.00,,,0.00,WUHU21623XXSP,2013-11-03 09:22:00,
2013-11-03 04:27:00,69.4,61.5,29.34,NNW,337,0.0,0.0,76,0.00,,,0.00,WUHU21623XXSP,2013-11-03 09:27:00,
2013-11-03 04:32:00,69.4,61.5,29.35,NNW,337,0.0,0.0,76,0.00,,,0.00,WUHU21623XXSP,2013-11-03 09:32:00,
2013-11-03 04:37:00,69.3,61.3,29.35,NW,315,0.0,0.0,76,0.00,,,0.00,WUHU21623XXSP,2013-11-03 09:37:00,
2013-11-03 04:42:00,69.3,61.3,29.34,North,0,0.0,0.0,76,0.00,,,0.00,WUHU21623XXSP,2013-11-03 09:42:00,
2013-11-03 04:47:00,69.1,61.2,29.35,NNW,337,0.0,0.0,76,0.00,,,0.00,WUHU21623XXSP,2013-11-03 09:47:00,
2013-11-03 04:52:00,69.1,61.2,29.35,NNW,337,0.0,0.0,76,0.00,,,0.00,WUHU21623XXSP,2013-11-03 09:52:00,
2013-11-03 04:57:00,69.3,61.3,29.35,NNW,337,0.0,0.0,76,0.00,,,0.00,WUHU21623XXSP,2013-11-03 09:57:00,
2013-11-03 05:02:00,69.3,61.3,29.35,NNW,337,0.0,0.0,76,0.00,,,0.00,WUHU21623XXSP,2013-11-03 10:02:00,
2013-11-03 05:07:00,69.3,61.3,29.35,North,0,0.0,0.0,76,0.00,,,0.00,WUHU21623XXSP,2013-11-03 10:07:00,
2013-11-03 05:12:00,69.1,61.2,29.35,NNW,337,0.0,0.0,76,0.00,,,0.00,WUHU21623XXSP,2013-11-03 10:12:00,
2013-11-03 05:17:00,69.1,61.2,29.35,NNW,337,0.0,0.0,75,0.00,,,0.00,WUHU21623XXSP,2013-11-03 10:17:00,
2013-11-03 05:22:00,69.1,60.8,29.35,NNW,337,0.0,0.0,75,0.00,,,0.00,WUHU21623XXSP,2013-11-03 10:22:00,
2013-11-03 05:27:00,69.1,60.8,29.35,NNW,337,0.0,0.0,75,0.00,,,0.00,WUHU21623XXSP,2013-11-03 10:27:00,
2013-11-03 05:32:00,68.9,60.6,29.35,NNW,337,0.0,0.0,75,0.00,,,0.00,WUHU21623XXSP,2013-11-03 10:32:00,
2013-11-03 05:37:00,68.7,60.5,29.35,NW,315,0.0,0.0,75,0.00,,,0.00,WUHU21623XXSP,2013-11-03 10:37:00,
2013-11-03 05:42:00,68.7,60.5,29.35,NNW,337,0.0,0.0,75,0.00,,,0.00,WUHU21623XXSP,2013-11-03 10:42:00,
2013-11-03 05:47:00,68.7,60.1,29.36,NNW,337,0.0,0.0,74,0.00,,,0.00,WUHU21623XXSP,2013-11-03 10:47:00,
2013-11-03 05:52:00,68.7,60.1,29.36,NW,315,0.0,0.0,74,0.00,,,0.00,WUHU21623XXSP,2013-11-03 10:52:00,
2013-11-03 05:57:00,68.5,59.9,29.36,North,0,0.0,0.0,74,0.00,,,0.00,WUHU21623XXSP,2013-11-03 10:57:00,
2013-11-03 06:02:00,68.7,59.9,29.36,NNW,337,0.0,0.0,74,0.00,,,0.00,WUHU21623XXSP,2013-11-03 11:02:00,
2013-11-03 06:07:00,68.5,59.9,29.36,NNW,337,0.0,0.0,74,0.00,,,0.00,WUHU21623XXSP,2013-11-03 11:07:00,
2013-11-03 06:12:00,68.5,59.5,29.37,NNW,337,0.0,0.0,73,0.00,,,0.00,WUHU21623XXSP,2013-11-03 11:12:00,
2013-11-03 06:17:00,68.5,59.5,29.37,NNW,337,0.0,0.0,73,0.00,,,0.00,WUHU21623XXSP,2013-11-03 11:17:00,
2013-11-03 06:22:00,68.5,59.5,29.37,North,0,0.0,0.0,73,0.00,,,0.00,WUHU21623XXSP,2013-11-03 11:22:00,
2013-11-03 06:27:00,68.5,59.5,29.38,NNW,337,0.0,0.0,73,0.00,,,0.00,WUHU21623XXSP,2013-11-03 11:27:00,
2013-11-03 06:32:00,68.5,59.5,29.37,NNW,337,0.0,0.0,73,0.00,,,0.00,WUHU21623XXSP,2013-11-03 11:32:00,
2013-11-03 06:37:00,68.5,59.5,29.37,NNE,22,0.0,0.0,73,0.00,,,0.00,WUHU21623XXSP,2013-11-03 11:37:00,
2013-11-03 06:42:00,68.7,59.7,29.37,North,0,0.0,0.0,73,0.00,,,0.00,WUHU21623XXSP,2013-11-03 11:42:00,
2013-11-03 06:47:00,68.7,59.7,29.38,NNW,337,0.0,0.0,73,0.00,,,0.00,WUHU21623XXSP,2013-11-03 11:47:00,
2013-11-03 06:52:00,68.7,59.3,29.38,North,0,0.0,0.0,72,0.00,,,0.00,WUHU21623XXSP,2013-11-03 11:52:00,
2013-11-03 06:57:00,68.7,59.3,29.38,NNW,337,0.0,0.0,72,0.00,,,0.00,WUHU21623XXSP,2013-11-03 11:57:00,
2013-11-03 07:02:00,68.7,59.3,29.38,NNW,337,0.0,0.0,72,0.00,,,0.00,WUHU21623XXSP,2013-11-03 12:02:00,
2013-11-03 07:07:00,68.7,59.3,29.39,NW,315,0.0,0.0,72,0.00,,,0.00,WUHU21623XXSP,2013-11-03 12:07:00,
2013-11-03 07:12:00,68.9,59.1,29.39,North,0,0.0,0.0,71,0.00,,,0.00,WUHU21623XXSP,2013-11-03 12:12:00,
2013-11-03 07:17:00,68.9,59.1,29.38,North,0,0.0,0.0,71,0.00,,,0.00,WUHU21623XXSP,2013-11-03 12:17:00,
2013-11-03 07:22:00,69.1,59.3,29.38,NNW,337,0.0,0.0,71,0.00,,,0.00,WUHU21623XXSP,2013-11-03 12:22:00,
2013-11-03 07:27:00,69.1,59.3,29.39,NNW,337,0.0,0.0,71,0.00,,,0.00,WUHU21623XXSP,2013-11-03 12:27:00,
2013-11-03 07:32:00,69.3,59.3,29.39,NNW,337,0.0,0.0,71,0.00,,,0.00,WUHU21623XXSP,2013-11-03 12:32:00,
2013-11-03 07:37:00,69.4,59.6,29.39,NNE,22,0.0,0.0,71,0.00,,,0.00,WUHU21623XXSP,2013-11-03 12:37:00,
2013-11-03 07:42:00,69.4,59.6,29.39,NNE,22,0.0,0.0,71,0.00,,,0.00,WUHU21623XXSP,2013-11-03 12:42:00,
2013-11-03 07:47:00,70.0,59.9,29.39,NNW,337,0.0,0.0,71,0.00,,,0.00,WUHU21623XXSP,2013-11-03 12:47:00,
2013-11-03 07:52:00,70.3,60.5,29.39,NNW,337,0.0,0.0,71,0.00,,,0.00,WUHU21623XXSP,2013-11-03 12:52:00,
2013-11-03 07:57:00,70.7,60.4,29.39,NNE,22,0.0,0.0,70,0.00,,,0.00,WUHU21623XXSP,2013-11-03 12:57:00,
2013-11-03 08:02:00,71.2,60.5,29.40,NNW,337,0.0,0.0,69,0.00,,,0.00,WUHU21623XXSP,2013-11-03 13:02:00,
2013-11-03 08:07:00,71.4,60.7,29.40,NNE,22,0.0,0.0,69,0.00,,,0.00,WUHU21623XXSP,2013-11-03 13:07:00,
2013-11-03 08:12:00,71.8,61.1,29.40,North,0,0.0,0.0,68,0.00,,,0.00,WUHU21623XXSP,2013-11-03 13:12:00,
2013-11-03 08:17:00,71.8,60.6,29.40,NNW,337,0.0,0.0,68,0.00,,,0.00,WUHU21623XXSP,2013-11-03 13:17:00,
2013-11-03 08:22:00,71.8,60.6,29.40,NW,315,0.0,0.0,68,0.00,,,0.00,WUHU21623XXSP,2013-11-03 13:22:00,
2013-11-03 08:27:00,72.0,60.4,29.40,NNE,22,0.0,0.0,67,0.00,,,0.00,WUHU21623XXSP,2013-11-03 13:27:00,
2013-11-03 08:32:00,72.3,60.7,29.41,North,0,0.0,0.0,67,0.00,,,0.00,WUHU21623XXSP,2013-11-03 13:32:00,
2013-11-03 08:37:00,72.7,61.1,29.41,North,0,0.0,0.0,67,0.00,,,0.00,WUHU21623XXSP,2013-11-03 13:37:00,
2013-11-03 08:43:00,73.0,61.4,29.41,NE,45,0.0,0.0,67,0.00,,,0.00,WUHU21623XXSP,2013-11-03 13:43:00,
2013-11-03 08:48:00,73.2,60.7,29.42,NNE,22,0.0,0.0,65,0.00,,,0.00,WUHU21623XXSP,2013-11-03 13:48:00,
2013-11-03 08:53:00,73.2,61.2,29.42,NNW,337,0.0,0.0,66,0.00,,,0.00,WUHU21623XXSP,2013-11-03 13:53:00,
2013-11-03 08:58:00,73.6,60.6,29.42,North,0,0.0,0.0,64,0.00,,,0.00,WUHU21623XXSP,2013-11-03 13:58:00,
2013-11-03 09:03:00,73.6,60.4,29.42,North,0,0.0,0.0,65,0.00,,,0.00,WUHU21623XXSP,2013-11-03 14:03:00,
2013-11-03 09:08:00,73.8,61.2,29.42,North,0,0.0,0.0,65,0.00,,,0.00,WUHU21623XXSP,2013-11-03 14:08:00,
2013-11-03 09:13:00,73.9,61.2,29.43,NNW,337,0.0,0.0,64,0.00,,,0.00,WUHU21623XXSP,2013-11-03 14:13:00,
2013-11-03 09:18:00,74.3,61.1,29.42,North,0,0.0,0.0,65,0.00,,,0.00,WUHU21623XXSP,2013-11-03 14:18:00,
2013-11-03 09:23:00,74.8,61.8,29.43,NNW,337,0.0,0.0,64,0.00,,,0.00,WUHU21623XXSP,2013-11-03 14:23:00,
2013-11-03 09:28:00,75.0,62.0,29.43,NNW,337,0.0,0.0,63,0.00,,,0.00,WUHU21623XXSP,2013-11-03 14:28:00,
2013-11-03 09:33:00,75.4,61.9,29.43,NNW,337,0.0,0.0,63,0.00,,,0.00,WUHU21623XXSP,2013-11-03 14:33:00,
2013-11-03 09:38:00,75.6,61.6,29.43,WNW,292,0.0,0.0,62,0.00,,,0.00,WUHU21623XXSP,2013-11-03 14:38:00,
2013-11-03 09:43:00,75.7,62.2,29.43,NE,45,0.0,0.0,63,0.00,,,0.00,WUHU21623XXSP,2013-11-03 14:43:00,
2013-11-03 09:48:00,75.7,61.8,29.43,NNE,22,0.0,0.0,62,0.00,,,0.00,WUHU21623XXSP,2013-11-03 14:48:00,
2013-11-03 09:53:00,75.9,62.0,29.43,NNE,22,0.0,0.0,62,0.00,,,0.00,WUHU21623XXSP,2013-11-03 14:53:00,
2013-11-03 09:58:00,76.3,62.1,29.43,NNW,337,0.0,0.0,62,0.00,,,0.00,WUHU21623XXSP,2013-11-03 14:58:00,
2013-11-03 10:03:00,76.8,62.8,29.43,North,0,0.0,0.0,62,0.00,,,0.00,WUHU21623XXSP,2013-11-03 15:03:00,
2013-11-03 10:08:00,77.2,63.1,29.43,NNW,337,0.0,0.0,62,0.00,,,0.00,WUHU21623XXSP,2013-11-03 15:08:00,
2013-11-03 10:13:00,77.5,63.5,29.43,NNE,22,0.0,0.0,62,0.00,,,0.00,WUHU21623XXSP,2013-11-03 15:13:00,
2013-11-03 10:18:00,77.9,63.8,29.43,NNW,337,0.0,0.0,62,0.00,,,0.00,WUHU21623XXSP,2013-11-03 15:18:00,
2013-11-03 10:23:00,78.4,63.9,29.43,North,0,0.0,0.0,61,0.00,,,0.00,WUHU21623XXSP,2013-11-03 15:23:00,
2013-11-03 10:28:00,78.6,64.1,29.43,NW,315,0.0,0.0,61,0.00,,,0.00,WUHU21623XXSP,2013-11-03 15:28:00,
2013-11-03 10:33:00,79.0,64.0,29.43,NNW,337,0.0,0.0,60,0.00,,,0.00,WUHU21623XXSP,2013-11-03 15:33:00,
2013-11-03 10:38:00,79.3,64.3,29.43,ENE,67,0.0,0.0,60,0.00,,,0.00,WUHU21623XXSP,2013-11-03 15:38:00,
2013-11-03 10:43:00,79.5,64.5,29.43,North,0,0.0,0.0,59,0.00,,,0.00,WUHU21623XXSP,2013-11-03 15:43:00,
2013-11-03 10:48:00,79.9,64.8,29.43,North,0,0.0,0.0,60,0.00,,,0.00,WUHU21623XXSP,2013-11-03 15:48:00,
2013-11-03 10:53:00,80.1,64.5,29.43,NE,45,0.0,0.0,59,0.00,,,0.00,WUHU21623XXSP,2013-11-03 15:53:00,
2013-11-03 10:58:00,80.4,64.8,29.42,NE,45,0.0,0.0,59,0.00,,,0.00,WUHU21623XXSP,2013-11-03 15:58:00,
2013-11-03 11:03:00,81.0,64.8,29.42,NE,45,0.0,0.0,58,0.00,,,0.00,WUHU21623XXSP,2013-11-03 16:03:00,
2013-11-03 11:08:00,80.8,64.1,29.42,ENE,67,0.0,0.0,57,0.00,,,0.00,WUHU21623XXSP,2013-11-03 16:08:00,
2013-11-03 11:13:00,80.4,64.3,29.42,NE,45,0.0,0.0,58,0.00,,,0.00,WUHU21623XXSP,2013-11-03 16:13:00,
2013-11-03 11:18:00,79.9,63.8,29.42,NE,45,0.0,0.0,58,0.00,,,0.00,WUHU21623XXSP,2013-11-03 16:18:00,
2013-11-03 11:23:00,79.9,63.3,29.42,NE,45,0.0,0.0,57,0.00,,,0.00,WUHU21623XXSP,2013-11-03 16:23:00,
2013-11-03 11:28:00,79.5,62.9,29.42,NE,45,0.0,0.0,57,0.00,,,0.00,WUHU21623XXSP,2013-11-03 16:28:00,
2013-11-03 11:33:00,79.5,62.9,29.42,NE,45,0.0,0.0,57,0.00,,,0.00,WUHU21623XXSP,2013-11-03 16:33:00,
2013-11-03 11:38:00,79.3,62.8,29.42,NE,45,0.0,0.0,57,0.00,,,0.00,WUHU21623XXSP,2013-11-03 16:38:00,
2013-11-03 11:43:00,78.8,62.5,29.42,NNE,22,0.0,0.0,57,0.00,,,0.00,WUHU21623XXSP,2013-11-03 16:43:00,
2013-11-03 11:48:00,78.8,62.8,29.42,NE,45,0.0,0.0,58,0.00,,,0.00,WUHU21623XXSP,2013-11-03 16:48:00,
2013-11-03 11:53:00,78.6,62.6,29.42,NNE,22,0.0,0.0,58,0.00,,,0.00,WUHU21623XXSP,2013-11-03 16:53:00,
2013-11-03 11:58:00,78.6,63.2,29.42,NE,45,0.0,0.0,59,0.00,,,0.00,WUHU21623XXSP,2013-11-03 16:58:00,
2013-11-03 12:03:00,78.6,63.2,29.42,NNE,22,0.0,0.0,59,0.00,,,0.00,WUHU21623XXSP,2013-11-03 17:03:00,
2013-11-03 12:08:00,78.6,63.2,29.42,NNE,22,0.0,0.0,59,0.00,,,0.00,WUHU21623XXSP,2013-11-03 17:08:00,
2013-11-03 12:13:00,78.6,63.7,29.41,NNE,22,0.0,0.0,60,0.00,,,0.00,WUHU21623XXSP,2013-11-03 17:13:00,
2013-11-03 12:18:00,79.0,63.5,29.41,NE,45,0.0,0.0,59,0.00,,,0.00,WUHU21623XXSP,2013-11-03 17:18:00,
2013-11-03 12:23:00,79.0,63.0,29.41,NE,45,0.0,0.0,58,0.00,,,0.00,WUHU21623XXSP,2013-11-03 17:23:00,
2013-11-03 12:28:00,79.0,63.5,29.41,NE,45,0.0,0.0,59,0.00,,,0.00,WUHU21623XXSP,2013-11-03 17:28:00,
2013-11-03 12:33:00,79.0,63.0,29.40,North,0,0.0,0.0,58,0.00,,,0.00,WUHU21623XXSP,2013-11-03 17:33:00,
2013-11-03 12:38:00,79.7,63.6,29.40,NE,45,0.0,0.0,58,0.00,,,0.00,WUHU21623XXSP,2013-11-03 17:38:00,
2013-11-03 12:43:00,79.9,62.2,29.40,NNE,22,0.0,0.0,55,0.00,,,0.00,WUHU21623XXSP,2013-11-03 17:43:00,
2013-11-03 12:48:00,79.5,61.9,29.40,North,0,0.0,0.0,55,0.00,,,0.00,WUHU21623XXSP,2013-11-03 17:48:00,
2013-11-03 12:53:00,79.3,61.7,29.40,NE,45,0.0,0.0,55,0.00,,,0.00,WUHU21623XXSP,2013-11-03 17:53:00,
2013-11-03 12:58:00,79.3,61.7,29.40,NE,45,0.0,0.0,55,0.00,,,0.00,WUHU21623XXSP,2013-11-03 17:58:00,
2013-11-03 13:03:00,80.1,61.9,29.39,NE,45,0.0,0.0,54,0.00,,,0.00,WUHU21623XXSP,2013-11-03 18:03:00,
2013-11-03 13:08:00,81.1,62.8,29.39,NE,45,0.0,0.0,54,0.00,,,0.00,WUHU21623XXSP,2013-11-03 18:08:00,
2013-11-03 13:13:00,81.3,62.5,29.39,ENE,67,0.0,0.0,53,0.00,,,0.00,WUHU21623XXSP,2013-11-03 18:13:00,
2013-11-03 13:18:00,81.0,62.2,29.39,NNE,22,0.0,0.0,53,0.00,,,0.00,WUHU21623XXSP,2013-11-03 18:18:00,
2013-11-03 13:23:00,81.0,62.2,29.39,NE,45,0.0,0.0,53,0.00,,,0.00,WUHU21623XXSP,2013-11-03 18:23:00,
2013-11-03 13:28:00,81.1,62.3,29.39,NNE,22,0.0,0.0,53,0.00,,,0.00,WUHU21623XXSP,2013-11-03 18:28:00,
2013-11-03 13:33:00,80.8,62.0,29.38,NE,45,0.0,0.0,53,0.00,,,0.00,WUHU21623XXSP,2013-11-03 18:33:00,
2013-11-03 13:38:00,80.4,62.2,29.39,NE,45,0.0,0.0,54,0.00,,,0.00,WUHU21623XXSP,2013-11-03 18:38:00,
2013-11-03 13:43:00,80.2,62.0,29.38,NNE,22,0.0,0.0,54,0.00,,,0.00,WUHU21623XXSP,2013-11-03 18:43:00,
2013-11-03 13:48:00,79.9,61.7,29.38,NE,45,0.0,0.0,54,0.00,,,0.00,WUHU21623XXSP,2013-11-03 18:48:00,
2013-11-03 13:53:00,80.1,62.4,29.38,NE,45,0.0,0.0,55,0.00,,,0.00,WUHU21623XXSP,2013-11-03 18:53:00,
2013-11-03 13:58:00,81.1,62.8,29.38,ENE,67,0.0,0.0,54,0.00,,,0.00,WUHU21623XXSP,2013-11-03 18:58:00,
2013-11-03 14:03:00,81.0,62.7,29.38,NE,45,0.0,0.0,54,0.00,,,0.00,WUHU21623XXSP,2013-11-03 19:03:00,
2013-11-03 14:08:00,80.6,62.3,29.38,NE,45,0.0,0.0,54,0.00,,,0.00,WUHU21623XXSP,2013-11-03 19:08:00,
2013-11-03 14:13:00,81.0,62.7,29.38,ENE,67,0.0,0.0,54,0.00,,,0.00,WUHU21623XXSP,2013-11-03 19:13:00,
2013-11-03 14:18:00,81.5,62.6,29.38,NE,45,0.0,0.0,53,0.00,,,0.00,WUHU21623XXSP,2013-11-03 19:18:00,
2013-11-03 14:23:00,81.1,62.3,29.38,NE,45,0.0,0.0,53,0.00,,,0.00,WUHU21623XXSP,2013-11-03 19:23:00,
2013-11-03 14:28:00,80.4,62.2,29.38,NE,45,0.0,0.0,54,0.00,,,0.00,WUHU21623XXSP,2013-11-03 19:28:00,
2013-11-03 14:33:00,79.9,62.2,29.38,NE,45,0.0,0.0,55,0.00,,,0.00,WUHU21623XXSP,2013-11-03 19:33:00,
2013-11-03 14:38:00,79.7,62.1,29.38,East,90,0.0,0.0,55,0.00,,,0.00,WUHU21623XXSP,2013-11-03 19:38:00,
2013-11-03 14:43:00,79.7,62.1,29.38,NNE,22,0.0,0.0,55,0.00,,,0.00,WUHU21623XXSP,2013-11-03 19:43:00,
2013-11-03 14:48:00,79.9,62.2,29.38,NE,45,0.0,0.0,55,0.00,,,0.00,WUHU21623XXSP,2013-11-03 19:48:00,
2013-11-03 14:53:00,79.7,62.1,29.38,NE,45,0.0,0.0,55,0.00,,,0.00,WUHU21623XXSP,2013-11-03 19:53:00,
2013-11-03 14:58:00,79.5,61.9,29.38,NE,45,0.0,0.0,55,0.00,,,0.00,WUHU21623XXSP,2013-11-03 19:58:00,
2013-11-03 15:03:00,79.5,61.9,29.38,NNE,22,0.0,0.0,55,0.00,,,0.00,WUHU21623XXSP,2013-11-03 20:03:00,
2013-11-03 15:08:00,79.7,61.5,29.38,NE,45,0.0,0.0,54,0.00,,,0.00,WUHU21623XXSP,2013-11-03 20:08:00,
2013-11-03 15:13:00,79.5,60.9,29.38,ENE,67,0.0,0.0,53,0.00,,,0.00,WUHU21623XXSP,2013-11-03 20:13:00,
2013-11-03 15:18:00,79.3,61.2,29.38,NE,45,0.0,0.0,54,0.00,,,0.00,WUHU21623XXSP,2013-11-03 20:18:00,
2013-11-03 15:23:00,79.2,61.1,29.38,NNE,22,0.0,0.0,54,0.00,,,0.00,WUHU21623XXSP,2013-11-03 20:23:00,
2013-11-03 15:28:00,79.5,61.4,29.38,NE,45,0.0,0.0,54,0.00,,,0.00,WUHU21623XXSP,2013-11-03 20:28:00,
2013-11-03 15:33:00,80.2,61.5,29.38,North,0,0.0,0.0,53,0.00,,,0.00,WUHU21623XXSP,2013-11-03 20:33:00,
2013-11-03 15:38:00,80.4,61.7,29.38,ENE,67,0.0,0.0,53,0.00,,,0.00,WUHU21623XXSP,2013-11-03 20:38:00,
2013-11-03 15:43:00,80.4,62.2,29.38,NNE,22,0.0,0.0,54,0.00,,,0.00,WUHU21623XXSP,2013-11-03 20:43:00,
2013-11-03 15:48:00,80.4,62.3,29.38,North,0,0.0,0.0,53,0.00,,,0.00,WUHU21623XXSP,2013-11-03 20:48:00,
2013-11-03 15:53:00,80.4,62.2,29.38,NNW,337,0.0,0.0,54,0.00,,,0.00,WUHU21623XXSP,2013-11-03 20:53:00,
2013-11-03 15:58:00,80.6,62.3,29.38,ENE,67,0.0,0.0,54,0.00,,,0.00,WUHU21623XXSP,2013-11-03 20:58:00,
2013-11-03 16:03:00,80.4,61.7,29.38,NE,45,0.0,0.0,53,0.00,,,0.00,WUHU21623XXSP,2013-11-03 21:03:00,
2013-11-03 16:08:00,80.2,62.0,29.38,NE,45,0.0,0.0,54,0.00,,,0.00,WUHU21623XXSP,2013-11-03 21:08:00,
2013-11-03 16:13:00,79.9,61.7,29.38,NE,45,0.0,0.0,54,0.00,,,0.00,WUHU21623XXSP,2013-11-03 21:13:00,
2013-11-03 16:18:00,79.5,61.4,29.38,North,0,0.0,0.0,54,0.00,,,0.00,WUHU21623XXSP,2013-11-03 21:18:00,
2013-11-03 16:23:00,79.3,61.2,29.38,NE,45,0.0,0.0,54,0.00,,,0.00,WUHU21623XXSP,2013-11-03 21:23:00,
2013-11-03 16:28:00,79.3,61.2,29.38,NE,45,0.0,0.0,54,0.00,,,0.00,WUHU21623XXSP,2013-11-03 21:28:00,
2013-11-03 16:33:00,79.0,60.9,29.39,NE,45,0.0,0.0,54,0.00,,,0.00,WUHU21623XXSP,2013-11-03 21:33:00,
2013-11-03 16:38:00,78.6,60.5,29.38,North,0,0.0,0.0,54,0.00,,,0.00,WUHU21623XXSP,2013-11-03 21:38:00,
2013-11-03 16:43:00,78.6,60.5,29.39,North,0,0.0,0.0,54,0.00,,,0.00,WUHU21623XXSP,2013-11-03 21:43:00,
2013-11-03 16:48:00,78.4,60.4,29.39,North,0,0.0,0.0,54,0.00,,,0.00,WUHU21623XXSP,2013-11-03 21:48:00,
2013-11-03 16:53:00,77.9,59.9,29.39,North,0,0.0,0.0,54,0.00,,,0.00,WUHU21623XXSP,2013-11-03 21:53:00,
2013-11-03 16:58:00,77.7,60.2,29.39,NNE,22,0.0,0.0,55,0.00,,,0.00,WUHU21623XXSP,2013-11-03 21:58:00,
2013-11-03 17:03:00,77.5,59.5,29.40,North,0,0.0,0.0,54,0.00,,,0.00,WUHU21623XXSP,2013-11-03 22:03:00,
2013-11-03 17:08:00,77.4,59.9,29.40,North,0,0.0,0.0,55,0.00,,,0.00,WUHU21623XXSP,2013-11-03 22:08:00,
2013-11-03 17:13:00,77.2,59.7,29.40,NE,45,0.0,0.0,55,0.00,,,0.00,WUHU21623XXSP,2013-11-03 22:13:00,
2013-11-03 17:18:00,76.8,59.4,29.40,North,0,0.0,0.0,55,0.00,,,0.00,WUHU21623XXSP,2013-11-03 22:18:00,
2013-11-03 17:23:00,76.6,59.7,29.40,NNE,22,0.0,0.0,56,0.00,,,0.00,WUHU21623XXSP,2013-11-03 22:23:00,
2013-11-03 17:28:00,76.5,59.6,29.40,NNE,22,0.0,0.0,56,0.00,,,0.00,WUHU21623XXSP,2013-11-03 22:28:00,
2013-11-03 17:33:00,76.3,59.4,29.40,NNE,22,0.0,0.0,56,0.00,,,0.00,WUHU21623XXSP,2013-11-03 22:33:00,
2013-11-03 17:38:00,76.3,59.4,29.40,North,0,0.0,0.0,56,0.00,,,0.00,WUHU21623XXSP,2013-11-03 22:38:00,
2013-11-03 17:43:00,76.1,59.2,29.40,NNW,337,0.0,0.0,56,0.00,,,0.00,WUHU21623XXSP,2013-11-03 22:43:00,
2013-11-03 17:48:00,75.9,59.6,29.40,NNE,22,0.0,0.0,57,0.00,,,0.00,WUHU21623XXSP,2013-11-03 22:48:00,
2013-11-03 17:53:00,75.9,59.6,29.41,North,0,0.0,0.0,57,0.00,,,0.00,WUHU21623XXSP,2013-11-03 22:53:00,
2013-11-03 17:58:00,75.7,58.9,29.41,NNE,22,0.0,0.0,56,0.00,,,0.00,WUHU21623XXSP,2013-11-03 22:58:00,
2013-11-03 18:03:00,75.7,59.4,29.41,NE,45,0.0,0.0,57,0.00,,,0.00,WUHU21623XXSP,2013-11-03 23:03:00,
2013-11-03 18:08:00,75.7,59.4,29.41,North,0,0.0,0.0,57,0.00,,,0.00,WUHU21623XXSP,2013-11-03 23:08:00,
2013-11-03 18:13:00,75.7,59.3,29.41,NE,45,0.0,0.0,57,0.00,,,0.00,WUHU21623XXSP,2013-11-03 23:13:00,
2013-11-03 18:18:00,75.7,59.4,29.41,NE,45,0.0,0.0,57,0.00,,,0.00,WUHU21623XXSP,2013-11-03 23:18:00,
2013-11-03 18:23:00,75.6,59.3,29.42,NNE,22,0.0,0.0,57,0.00,,,0.00,WUHU21623XXSP,2013-11-03 23:23:00,
2013-11-03 18:28:00,75.6,59.8,29.42,North,0,0.0,0.0,58,0.00,,,0.00,WUHU21623XXSP,2013-11-03 23:28:00,
2013-11-03 18:33:00,75.4,59.6,29.42,NE,45,0.0,0.0,58,0.00,,,0.00,WUHU21623XXSP,2013-11-03 23:33:00,
2013-11-03 18:38:00,75.4,60.1,29.42,NNE,22,0.0,0.0,59,0.00,,,0.00,WUHU21623XXSP,2013-11-03 23:38:00,
2013-11-03 18:43:00,75.4,60.1,29.42,NE,45,0.0,0.0,59,0.00,,,0.00,WUHU21623XXSP,2013-11-03 23:43:00,
2013-11-03 18:48:00,75.4,60.1,29.43,NNW,337,0.0,0.0,59,0.00,,,0.00,WUHU21623XXSP,2013-11-03 23:48:00,
2013-11-03 18:53:00,75.6,60.3,29.43,NNE,22,0.0,0.0,59,0.00,,,0.00,WUHU21623XXSP,2013-11-03 23:53:00,
2013-11-03 18:58:00,75.6,60.3,29.43,NNE,22,0.0,0.0,59,0.00,,,0.00,WUHU21623XXSP,2013-11-03 23:58:00,
2013-11-03 19:03:00,75.6,60.3,29.43,NE,45,0.0,0.0,59,0.00,,,0.00,WUHU21623XXSP,2013-11-04 00:03:00,
2013-11-03 19:08:00,75.7,60.4,29.43,NNE,22,0.0,0.0,59,0.00,,,0.00,WUHU21623XXSP,2013-11-04 00:08:00,
2013-11-03 19:13:00,75.9,60.6,29.43,NE,45,0.0,0.0,59,0.00,,,0.00,WUHU21623XXSP,2013-11-04 00:13:00,
2013-11-03 19:18:00,75.9,60.6,29.43,NE,45,0.0,0.0,59,0.00,,,0.00,WUHU21623XXSP,2013-11-04 00:18:00,
2013-11-03 19:23:00,75.9,60.6,29.43,NNE,22,0.0,0.0,59,0.00,,,0.00,WUHU21623XXSP,2013-11-04 00:23:00,
2013-11-03 19:28:00,75.9,60.6,29.43,NE,45,0.0,0.0,59,0.00,,,0.00,WUHU21623XXSP,2013-11-04 00:28:00,
2013-11-03 19:33:00,75.9,61.1,29.43,North,0,0.0,0.0,60,0.00,,,0.00,WUHU21623XXSP,2013-11-04 00:33:00,
2013-11-03 19:38:00,75.9,60.6,29.44,North,0,0.0,0.0,59,0.00,,,0.00,WUHU21623XXSP,2013-11-04 00:38:00,
2013-11-03 19:43:00,75.9,60.6,29.44,North,0,0.0,0.0,59,0.00,,,0.00,WUHU21623XXSP,2013-11-04 00:43:00,
2013-11-03 19:48:00,75.9,60.6,29.44,NNW,337,0.0,0.0,59,0.00,,,0.00,WUHU21623XXSP,2013-11-04 00:48:00,
2013-11-03 19:53:00,75.9,60.6,29.44,NNE,22,0.0,0.0,59,0.00,,,0.00,WUHU21623XXSP,2013-11-04 00:53:00,
2013-11-03 19:58:00,75.9,60.6,29.44,NNE,22,0.0,0.0,59,0.00,,,0.00,WUHU21623XXSP,2013-11-04 00:58:00,
2013-11-03 20:03:00,75.9,60.6,29.44,NE,45,0.0,0.0,59,0.00,,,0.00,WUHU21623XXSP,2013-11-04 01:03:00,
2013-11-03 20:08:00,75.9,61.1,29.44,East,90,0.0,0.0,60,0.00,,,0.00,WUHU21623XXSP,2013-11-04 01:08:00,
2013-11-03 20:13:00,75.9,61.5,29.44,North,0,0.0,0.0,61,0.00,,,0.00,WUHU21623XXSP,2013-11-04 01:13:00,
2013-11-03 20:19:00,75.9,61.5,29.45,NNE,22,0.0,0.0,61,0.00,,,0.00,WUHU21623XXSP,2013-11-04 01:19:00,
2013-11-03 20:24:00,75.9,61.1,29.45,ENE,67,0.0,0.0,60,0.00,,,0.00,WUHU21623XXSP,2013-11-04 01:24:00,
2013-11-03 20:29:00,75.9,61.1,29.45,NE,45,0.0,0.0,60,0.00,,,0.00,WUHU21623XXSP,2013-11-04 01:29:00,
2013-11-03 20:34:00,75.9,60.6,29.45,NE,45,0.0,0.0,59,0.00,,,0.00,WUHU21623XXSP,2013-11-04 01:34:00,
2013-11-03 20:39:00,75.9,61.1,29.45,ENE,67,0.0,0.0,60,0.00,,,0.00,WUHU21623XXSP,2013-11-04 01:39:00,
2013-11-03 20:44:00,75.7,60.9,29.45,NE,45,0.0,0.0,60,0.00,,,0.00,WUHU21623XXSP,2013-11-04 01:44:00,
2013-11-03 20:49:00,75.7,60.9,29.45,NE,45,0.0,0.0,60,0.00,,,0.00,WUHU21623XXSP,2013-11-04 01:49:00,
2013-11-03 20:54:00,75.6,60.8,29.46,NNE,22,0.0,0.0,60,0.00,,,0.00,WUHU21623XXSP,2013-11-04 01:54:00,
2013-11-03 20:59:00,75.6,60.8,29.46,NE,45,0.0,0.0,60,0.00,,,0.00,WUHU21623XXSP,2013-11-04 01:59:00,
2013-11-03 21:04:00,75.6,61.2,29.46,NE,45,0.0,0.0,61,0.00,,,0.00,WUHU21623XXSP,2013-11-04 02:04:00,
2013-11-03 21:09:00,75.6,61.2,29.46,ENE,67,0.0,0.0,61,0.00,,,0.00,WUHU21623XXSP,2013-11-04 02:09:00,
2013-11-03 21:14:00,75.6,61.2,29.46,NNE,22,0.0,0.0,61,0.00,,,0.00,WUHU21623XXSP,2013-11-04 02:14:00,
2013-11-03 21:19:00,75.6,61.2,29.46,ESE,112,0.0,0.0,61,0.00,,,0.00,WUHU21623XXSP,2013-11-04 02:19:00,
2013-11-03 21:24:00,75.6,61.2,29.46,ENE,67,0.0,0.0,61,0.00,,,0.00,WUHU21623XXSP,2013-11-04 02:24:00,
2013-11-03 21:29:00,75.6,61.2,29.46,NE,45,0.0,0.0,61,0.00,,,0.00,WUHU21623XXSP,2013-11-04 02:29:00,
2013-11-03 21:34:00,75.7,61.4,29.46,NE,45,0.0,0.0,61,0.00,,,0.00,WUHU21623XXSP,2013-11-04 02:34:00,
2013-11-03 21:39:00,75.7,61.4,29.46,ENE,67,0.0,0.0,61,0.00,,,0.00,WUHU21623XXSP,2013-11-04 02:39:00,
2013-11-03 21:44:00,75.7,61.4,29.47,NE,45,0.0,0.0,61,0.00,,,0.00,WUHU21623XXSP,2013-11-04 02:44:00,
2013-11-03 21:49:00,75.9,61.1,29.47,NE,45,0.0,0.0,60,0.00,,,0.00,WUHU21623XXSP,2013-11-04 02:49:00,
2013-11-03 21:54:00,75.9,61.1,29.46,NNE,22,0.0,0.0,60,0.00,,,0.00,WUHU21623XXSP,2013-11-04 02:54:00,
2013-11-03 21:59:00,75.9,61.1,29.46,ENE,67,0.0,0.0,60,0.00,,,0.00,WUHU21623XXSP,2013-11-04 02:59:00,
2013-11-03 22:04:00,75.9,60.6,29.47,ENE,67,0.0,0.0,59,0.00,,,0.00,WUHU21623XXSP,2013-11-04 03:04:00,
2013-11-03 22:09:00,75.9,60.6,29.47,ENE,67,0.0,0.0,59,0.00,,,0.00,WUHU21623XXSP,2013-11-04 03:09:00,
2013-11-03 22:14:00,75.9,60.6,29.46,NNE,22,0.0,0.0,59,0.00,,,0.00,WUHU21623XXSP,2013-11-04 03:14:00,
2013-11-03 22:19:00,75.9,61.1,29.46,NNE,22,0.0,0.0,60,0.00,,,0.00,WUHU21623XXSP,2013-11-04 03:19:00,
2013-11-03 22:24:00,75.9,60.6,29.46,NNE,22,0.0,0.0,59,0.00,,,0.00,WUHU21623XXSP,2013-11-04 03:24:00,
2013-11-03 22:29:00,75.9,61.1,29.46,NE,45,0.0,0.0,60,0.00,,,0.00,WUHU21623XXSP,2013-11-04 03:29:00,
2013-11-03 22:34:00,75.9,61.1,29.46,NE,45,0.0,0.0,60,0.00,,,0.00,WUHU21623XXSP,2013-11-04 03:34:00,
2013-11-03 22:39:00,75.7,60.9,29.46,NE,45,0.0,0.0,60,0.00,,,0.00,WUHU21623XXSP,2013-11-04 03:39:00,
2013-11-03 22:44:00,75.9,61.5,29.46,ESE,112,0.0,0.0,61,0.00,,,0.00,WUHU21623XXSP,2013-11-04 03:44:00,
2013-11-03 22:49:00,75.9,61.5,29.46,ESE,112,0.0,0.0,61,0.00,,,0.00,WUHU21623XXSP,2013-11-04 03:49:00,
2013-11-03 22:54:00,75.9,61.5,29.46,NE,45,0.0,0.0,61,0.00,,,0.00,WUHU21623XXSP,2013-11-04 03:54:00,
2013-11-03 22:59:00,75.9,61.5,29.46,ENE,67,0.0,0.0,61,0.00,,,0.00,WUHU21623XXSP,2013-11-04 03:59:00,
2013-11-03 23:04:00,75.9,61.5,29.46,NE,45,0.0,0.0,61,0.00,,,0.00,WUHU21623XXSP,2013-11-04 04:04:00,
2013-11-03 23:09:00,75.7,60.9,29.46,NE,45,0.0,0.0,60,0.00,,,0.00,WUHU21623XXSP,2013-11-04 04:09:00,
2013-11-03 23:14:00,75.7,60.9,29.46,NNE,22,0.0,0.0,60,0.00,,,0.00,WUHU21623XXSP,2013-11-04 04:14:00,
2013-11-03 23:19:00,75.7,60.9,29.46,NE,45,0.0,0.0,60,0.00,,,0.00,WUHU21623XXSP,2013-11-04 04:19:00,
2013-11-03 23:24:00,75.7,60.9,29.46,NE,45,0.0,0.0,60,0.00,,,0.00,WUHU21623XXSP,2013-11-04 04:24:00,
2013-11-03 23:29:00,75.6,60.8,29.46,NE,45,0.0,0.0,60,0.00,,,0.00,WUHU21623XXSP,2013-11-04 04:29:00,
2013-11-03 23:34:00,75.6,60.8,29.46,ENE,67,0.0,0.0,60,0.00,,,0.00,WUHU21623XXSP,2013-11-04 04:34:00,
2013-11-03 23:39:00,75.6,60.8,29.46,ENE,67,0.0,0.0,60,0.00,,,0.00,WUHU21623XXSP,2013-11-04 04:39:00,
2013-11-03 23:44:00,75.6,60.3,29.46,NE,45,0.0,0.0,59,0.00,,,0.00,WUHU21623XXSP,2013-11-04 04:44:00,
2013-11-03 23:49:00,75.6,60.3,29.46,NNE,22,0.0,0.0,59,0.00,,,0.00,WUHU21623XXSP,2013-11-04 04:49:00,
2013-11-03 23:54:00,75.6,60.3,29.46,NE,45,0.0,0.0,59,0.00,,,0.00,WUHU21623XXSP,2013-11-04 04:54:00,
2013-11-03 23:59:00,75.6,60.3,29.45,NE,45,0.0,0.0,60,0.00,,,0.00,WUHU21623XXSP,2013-11-04 04:59:00,